TimeCST,TemperatureF,Dew PointF,Humidity,Sea Level PressureIn,VisibilityMPH,Wind Direction,Wind SpeedMPH,Gust SpeedMPH,PrecipitationIn,Events,Conditions,WindDirDegrees,DateUTC
12:56 AM,-14.1,-20.0,75,30.56,10.0,ENE,3.5,-,N/A,,Clear,60,2013-02-20 06:56:00
1:56 AM,-16.1,-22.0,74,30.54,10.0,East,3.5,-,N/A,,Clear,100,2013-02-20 07:56:00
2:56 AM,-16.1,-22.0,74,30.54,10.0,Calm,Calm,-,N/A,,Clear,0,2013-02-20 08:56:00
3:56 AM,-16.1,-20.9,79,30.53,10.0,Calm,Calm,-,N/A,,Clear,0,2013-02-20 09:56:00
6:56 AM,-17.0,-25.1,67,30.53,10.0,Calm,Calm,-,N/A,,Clear,0,2013-02-20 12:56:00
7:56 AM,-18.9,-24.0,78,30.53,10.0,Calm,Calm,-,N/A,,Clear,0,2013-02-20 13:56:00
8:56 AM,-16.1,-20.0,82,30.52,10.0,Calm,Calm,-,N/A,,Clear,0,2013-02-20 14:56:00
9:56 AM,-11.9,-18.9,71,30.50,10.0,SE,4.6,-,N/A,,Clear,130,2013-02-20 15:56:00
10:56 AM,-7.1,-13.0,75,30.49,10.0,SE,8.1,-,0.00,,Clear,130,2013-02-20 16:56:00
11:56 AM,-2.9,-9.9,72,30.49,10.0,SSE,8.1,-,0.00,,Clear,150,2013-02-20 17:56:00
12:56 PM,1.0,-6.0,72,30.46,10.0,SE,10.4,-,0.00,,Scattered Clouds,140,2013-02-20 18:56:00
1:56 PM,1.9,-5.1,72,30.44,10.0,SE,11.5,-,0.00,,Overcast,140,2013-02-20 19:56:00
2:56 PM,3.0,-2.9,76,30.42,10.0,SE,12.7,-,N/A,,Overcast,130,2013-02-20 20:56:00
3:56 PM,3.9,-4.0,70,30.40,10.0,ESE,12.7,-,N/A,,Overcast,120,2013-02-20 21:56:00
4:56 PM,1.9,-4.0,76,30.40,10.0,ESE,15.0,-,N/A,,Overcast,110,2013-02-20 22:56:00
5:56 PM,1.9,-5.1,72,30.40,10.0,ESE,15.0,-,N/A,,Overcast,120,2013-02-20 23:56:00
6:56 PM,1.0,-6.0,72,30.39,10.0,ESE,12.7,-,N/A,,Mostly Cloudy,120,2013-02-21 00:56:00
7:56 PM,1.9,-5.1,72,30.38,10.0,ESE,13.8,-,N/A,,Overcast,120,2013-02-21 01:56:00
8:56 PM,3.0,-5.1,69,30.37,10.0,SE,20.7,-,N/A,,Overcast,130,2013-02-21 02:56:00
9:56 PM,3.0,-4.0,73,30.37,10.0,SE,12.7,-,N/A,,Overcast,140,2013-02-21 03:56:00
10:56 PM,1.9,-5.1,72,30.36,10.0,SE,17.3,-,N/A,,Overcast,140,2013-02-21 04:56:00
11:56 PM,3.0,-4.0,73,30.37,10.0,SSE,13.8,-,N/A,,Overcast,150,2013-02-21 05:56:00